Torna al catalogo

DELTA 1 DEB

AttivoLEO
NORAD 42585·DEBRIS·🇺🇸 United States

Lanciato Nov 6, 1973 da Vandenberg Space Force Base

Loading…

Prossimi Passaggi (prossime 24 ore)

TLE

ObsoletoSource: Space-Track

Epoca: Sep 8, 2026, 02:59 UTC

1 42585U 73086HZ  26251.12438411 -.00000021  00000-0  10665-3 0  9993
2 42585 101.9607 192.0157 0244190 349.7741  21.0029 12.87044282  4523

Traccia DELTA 1 DEB in tempo reale con AllMySat

Download on the App Store